R9YAAM-13 Weather Reports


time (UTC)temp
C
wind
direction
speed
KPH
gust
KPH
rain 1hr
cm
rain 24hr
cm
rain mn
cm
humidity
%
barometer
mb
20260508071029 16 0 0.0 0.0 0.00 0.00 0.00 83 988.4
20260508070030 16 0 0.0 0.0 0.00 0.00 0.00 83 988.5
20260508064929 16 0 0.0 0.0 0.00 0.00 0.00 83 988.6
20260508063929 16 0 0.0 0.0 0.00 0.00 0.00 83 988.6
20260508062829 16 0 0.0 0.0 0.00 0.00 0.00 83 988.9
20260508061829 16 0 0.0 0.0 0.00 0.00 0.00 83 988.7
20260508060829 16 0 0.0 0.0 0.00 0.00 0.00 82 988.8
20260508055829 16 0 0.0 0.0 0.00 0.00 0.00 82 988.9
20260508054730 16 0 0.0 0.0 0.00 0.00 0.00 81 988.9
20260508053630 16 0 0.0 0.0 0.00 0.00 0.00 81 989.0
20260508052629 16 0 0.0 0.0 0.00 0.00 0.00 80 989.1
20260508051629 16 0 0.0 0.0 0.00 0.00 0.00 81 989.2
20260508050529 16 0 0.0 0.0 0.00 0.00 0.00 81 989.2
20260508045529 16 0 0.0 0.0 0.00 0.00 0.00 82 989.2
20260508044529 16 0 0.0 0.0 0.00 0.00 0.00 82 989.2
20260508043528 16 0 0.0 0.0 0.00 0.00 0.00 82 989.3
20260508042529 16 0 0.0 0.0 0.00 0.00 0.00 82 989.0
20260508041528 16 0 0.0 0.0 0.00 0.00 0.00 83 989.1
20260508040528 16 0 0.0 0.0 0.00 0.00 0.00 83 988.9
20260508035529 15 0 0.0 0.0 0.00 0.00 0.00 83 988.9
20260508034429 15 0 0.0 0.0 0.00 0.00 0.00 83 988.9
20260508033429 15 0 0.0 0.0 0.00 0.00 0.00 84 988.9
20260508032429 15 0 0.0 0.0 0.00 0.00 0.00 85 988.9
20260508031429 15 0 0.0 0.0 0.00 0.00 0.00 85 989.0
20260508030329 15 0 0.0 0.0 0.00 0.00 0.00 84 988.8
20260508025229 15 0 0.0 0.0 0.00 0.00 0.00 84 988.7
20260508024128 15 0 0.0 0.0 0.00 0.00 0.00 82 988.3
20260508023029 15 0 0.0 0.0 0.00 0.00 0.00 82 988.3
20260508022029 15 0 0.0 0.0 0.00 0.00 0.00 82 988.1
20260508021029 15 0 0.0 0.0 0.00 0.00 0.00 82 988.2
20260508020029 15 0 0.0 0.0 0.00 0.00 0.00 80 988.3
20260508015029 15 0 0.0 0.0 0.00 0.00 0.00 78 988.8
20260508014029 15 0 0.0 0.0 0.00 0.00 0.00 76 989.0
20260508012929 15 0 0.0 0.0 0.00 0.00 0.00 73 989.0
20260508011929 15 0 0.0 0.0 0.00 0.00 0.00 74 988.9
20260508010929 15 0 0.0 0.0 0.00 0.00 0.00 74 989.0
20260508005829 15 0 0.0 0.0 0.00 0.00 0.00 75 989.0
20260508004828 15 0 0.0 0.0 0.00 0.00 0.00 75 988.9
20260508003829 15 0 0.0 0.0 0.00 0.00 0.00 74 988.9
20260508002729 15 0 0.0 0.0 0.00 0.00 0.00 72 989.0
20260508001730 15 0 0.0 0.0 0.00 0.00 0.00 68 989.0
20260508000744 15 0 0.0 0.0 0.00 0.00 0.00 68 988.8
20260507235729 16 0 0.0 0.0 0.00 0.00 0.00 65 988.6
20260507234729 16 0 0.0 0.0 0.00 0.00 0.00 63 988.4
20260507233629 16 0 0.0 0.0 0.00 0.00 0.00 58 988.3
20260507232629 16 0 0.0 0.0 0.00 0.00 0.00 56 988.2
20260507231529 16 0 0.0 0.0 0.00 0.00 0.00 58 988.1
20260507230529 16 0 0.0 0.0 0.00 0.00 0.00 59 988.1
20260507225529 16 0 0.0 0.0 0.00 0.00 0.00 59 988.1
20260507224444 16 0 0.0 0.0 0.00 0.00 0.00 58 987.8
20260507223429 16 0 0.0 0.0 0.00 0.00 0.00 59 987.8
20260507222429 16 0 0.0 0.0 0.00 0.00 0.00 58 987.9
20260507221329 16 0 0.0 0.0 0.00 0.00 0.00 57 987.9
20260507220229 16 0 0.0 0.0 0.00 0.00 0.00 57 987.9
20260507215129 16 0 0.0 0.0 0.00 0.00 0.00 57 987.9
20260507214129 16 0 0.0 0.0 0.00 0.00 0.00 57 987.8
20260507213029 16 0 0.0 0.0 0.00 0.00 0.00 57 987.8
20260507211928 16 0 0.0 0.0 0.00 0.00 0.00 57 987.9
20260507210928 16 0 0.0 0.0 0.00 0.00 0.00 57 987.7
20260507205929 16 0 0.0 0.0 0.00 0.00 0.00 56 987.7
20260507204829 16 0 0.0 0.0 0.00 0.00 0.00 56 987.8
20260507203729 16 0 0.0 0.0 0.00 0.00 0.00 56 987.7
20260507202629 17 0 0.0 0.0 0.00 0.00 0.00 55 987.8
20260507201628 17 0 0.0 0.0 0.00 0.00 0.00 54 987.7
20260507200528 17 0 0.0 0.0 0.00 0.00 0.00 53 987.7
20260507195528 17 0 0.0 0.0 0.00 0.00 0.00 53 987.8
20260507194529 17 0 0.0 0.0 0.00 0.00 0.00 52 988.0
20260507193528 17 0 0.0 0.0 0.00 0.00 0.00 52 988.1
20260507192528 17 0 0.0 0.0 0.00 0.00 0.00 52 988.3
20260507191428 17 0 0.0 0.0 0.00 0.00 0.00 51 988.5
20260507190428 17 0 0.0 0.0 0.00 0.00 0.00 51 988.5
20260507185328 17 0 0.0 0.0 0.00 0.00 0.00 50 988.6
20260507184328 17 0 0.0 0.0 0.00 0.00 0.00 51 988.7
20260507183328 17 0 0.0 0.0 0.00 0.00 0.00 51 988.8
20260507182329 17 0 0.0 0.0 0.00 0.00 0.00 52 988.9
20260507181228 17 0 0.0 0.0 0.00 0.00 0.00 52 989.1
20260507180229 17 0 0.0 0.0 0.00 0.00 0.00 52 989.1
20260507175229 17 0 0.0 0.0 0.00 0.00 0.00 51 989.2
20260507174129 17 0 0.0 0.0 0.00 0.00 0.00 51 989.4
20260507173129 17 0 0.0 0.0 0.00 0.00 0.00 54 989.3
20260507172128 17 0 0.0 0.0 0.00 0.00 0.00 54 989.4
20260507171128 17 0 0.0 0.0 0.00 0.00 0.00 58 989.4
20260507170129 16 0 0.0 0.0 0.00 0.00 0.00 59 989.6
20260507165128 16 0 0.0 0.0 0.00 0.00 0.00 58 989.6
20260507164129 16 0 0.0 0.0 0.00 0.00 0.00 58 989.7
20260507163128 16 0 0.0 0.0 0.00 0.00 0.00 57 989.6
20260507162028 17 0 0.0 0.0 0.00 0.00 0.00 57 989.7
20260507160927 17 0 0.0 0.0 0.00 0.00 0.00 56 989.8
20260507155927 17 0 0.0 0.0 0.00 0.00 0.00 56 989.9
20260507154928 17 0 0.0 0.0 0.00 0.00 0.00 55 990.0
20260507153828 17 0 0.0 0.0 0.00 0.00 0.00 55 990.2
20260507152827 17 0 0.0 0.0 0.00 0.00 0.00 54 990.1
20260507151827 17 0 0.0 0.0 0.00 0.00 0.00 54 990.2
20260507150827 17 0 0.0 0.0 0.00 0.00 0.00 53 990.2
20260507145728 17 0 0.0 0.0 0.00 0.00 0.00 52 990.2
20260507144728 17 0 0.0 0.0 0.00 0.00 0.00 52 990.4
20260507143628 18 0 0.0 0.0 0.00 0.00 0.00 52 990.3
20260507142627 18 0 0.0 0.0 0.00 0.00 0.00 51 990.3
20260507141527 18 0 0.0 0.0 0.00 0.00 0.00 50 990.4
20260507140427 18 0 0.0 0.0 0.00 0.00 0.00 49 990.3
20260507135427 19 0 0.0 0.0 0.00 0.00 0.00 48 990.2
20260507134427 18 0 0.0 0.0 0.00 0.00 0.00 48 990.3
20260507133327 19 0 0.0 0.0 0.00 0.00 0.00 48 990.3
20260507132327 19 0 0.0 0.0 0.00 0.00 0.00 47 990.3
20260507131327 20 0 0.0 0.0 0.00 0.00 0.00 46 990.3
20260507130327 20 0 0.0 0.0 0.00 0.00 0.00 46 990.5
20260507125242 20 0 0.0 0.0 0.00 0.00 0.00 45 990.5
20260507124227 20 0 0.0 0.0 0.00 0.00 0.00 45 990.7
20260507123227 20 0 0.0 0.0 0.00 0.00 0.00 46 990.7
20260507122228 20 0 0.0 0.0 0.00 0.00 0.00 45 990.7
20260507121243 20 0 0.0 0.0 0.00 0.00 0.00 45 990.8
20260507120242 21 0 0.0 0.0 0.00 0.00 0.00 43 990.9
20260507115127 21 0 0.0 0.0 0.00 0.00 0.00 42 990.8
20260507114143 22 0 0.0 0.0 0.00 0.00 0.00 40 990.9
20260507113128 22 0 0.0 0.0 0.00 0.00 0.00 36 990.8
20260507112027 22 0 0.0 0.0 0.00 0.00 0.00 36 990.9
20260507110927 22 0 0.0 0.0 0.00 0.00 0.00 37 990.9
20260507105927 22 0 0.0 0.0 0.00 0.00 0.00 37 991.1
20260507104927 22 0 0.0 0.0 0.00 0.00 0.00 38 991.0
20260507103927 22 0 0.0 0.0 0.00 0.00 0.00 37 991.1
20260507102927 22 0 0.0 0.0 0.00 0.00 0.00 39 991.1
20260507101928 22 0 0.0 0.0 0.00 0.00 0.00 38 991.3
20260507100828 22 0 0.0 0.0 0.00 0.00 0.00 38 991.2
20260507095827 22 0 0.0 0.0 0.00 0.00 0.00 37 991.3
20260507094828 23 0 0.0 0.0 0.00 0.00 0.00 36 991.3
20260507093727 23 0 0.0 0.0 0.00 0.00 0.00 37 991.2
20260507092727 23 0 0.0 0.0 0.00 0.00 0.00 36 991.3
20260507091728 24 0 0.0 0.0 0.00 0.00 0.00 36 991.4
20260507090628 24 0 0.0 0.0 0.00 0.00 0.00 36 991.4
20260507085628 24 0 0.0 0.0 0.00 0.00 0.00 37 991.5
20260507084628 25 0 0.0 0.0 0.00 0.00 0.00 39 991.6
20260507083527 23 0 0.0 0.0 0.00 0.00 0.00 36 991.7
20260507082428 25 0 0.0 0.0 0.00 0.00 0.00 38 991.7
20260507081427 24 0 0.0 0.0 0.00 0.00 0.00 39 991.7
20260507080427 25 0 0.0 0.0 0.00 0.00 0.00 40 991.8
20260507075328 24 0 0.0 0.0 0.00 0.00 0.00 42 991.8
20260507074328 23 0 0.0 0.0 0.00 0.00 0.00 42 991.9
20260507073327 23 0 0.0 0.0 0.00 0.00 0.00 43 991.9
20260507072328 23 0 0.0 0.0 0.00 0.00 0.00 43 992.0